User: anonymous   Login
Location: Fisheating Creek Campgrounds
(26.9333°N, 81.3167°W)
Time: 04:45:05
(UTC-04:00)
Language:

NATO 3D Rocket - Orbit

View from above orbital plane
View from above orbital plane
View from above satellite
View from above satellite

Ground track
Ground track

The orbit data is extracted from the following two-line orbital elements,

1 15392U 84115B   16239.92408067 +.00000168 +00000-0 +79763-5 0  9998
2 15392 021.4896 215.7620 1034509 139.7563 228.4211 12.45535978429500
Epoch (UTC): 26 August 2016 22:10:40
Eccentricity: 0.1034509
inclination: 21.4896°
perigee height: 670 km
apogee height: 2296 km
right ascension of ascending node: 215.7620°
argument of perigee: 139.7563°
revolutions per day: 12.45535978
mean anomaly at epoch: 228.4211°
orbit number at epoch: 42950

The dashed part of the orbit path shows where the satellite is in the earth's shadow,  

DLR